Wind_Speed
13 13 13 14 14 13 9 8 7 7 6 7 7 6 6 6 6 5 6 6 6 6 6 6 6 6 5 5 5 6 6 6 6 6 7 7 6 5 5 6 5 5 5 4 4 5 4 4 3
13 12 13 15 13 11 10 9 8 7 7 7 7 7 7 6 6 6 6 6 6 6 6 6 6 5 5 5 6 6 6 5 5 5 6 6 6 5 6 6 5 5 4 3 4 4 4 4 3
13 12 15 15 12 11 9 8 9 8 8 8 8 8 7 7 7 6 6 6 6 6 6 7 6 6 5 5 6 7 6 5 4 5 5 5 5 5 5 5 5 4 4 3 3 3 3 3 3
14 15 17 14 11 10 10 9 8 9 8 8 9 8 8 8 7 7 7 6 7 6 7 8 7 7 6 6 6 6 7 6 5 4 4 4 4 4 4 3 3 3 3 3 3 3 3 3 2
14 16 16 12 11 10 10 9 9 9 8 9 9 9 9 8 8 8 8 7 7 7 8 8 8 8 8 6 6 6 6 6 4 4 4 4 4 4 3 3 2 3 3 3 2 2 2 2 2
14 15 14 11 10 10 9 9 8 9 9 9 9 9 9 8 8 8 8 7 7 7 7 7 8 7 7 6 6 5 5 4 4 3 3 4 4 3 3 2 2 2 2 2 2 3 3 2 2
15 14 12 9 9 9 10 9 9 10 10 10 10 9 9 10 9 8 7 7 6 6 7 7 7 7 6 6 5 4 3 4 4 4 5 4 3 2 2 2 2 2 2 2 2 3 2 2 2
14 12 10 7 7 9 9 10 10 11 11 11 10 10 9 10 9 8 8 7 6 6 6 6 7 6 6 5 5 4 4 4 4 5 5 5 4 3 2 1 1 1 1 1 2 2 2 1 1
11 10 8 7 7 9 8 8 9 11 11 11 10 9 9 10 9 8 8 7 6 6 6 6 6 6 5 5 5 5 5 4 4 4 4 4 4 4 3 1 1 1 1 1 1 1 1 0 0
7 8 7 6 6 7 7 8 9 10 10 11 10 10 10 10 10 9 8 7 7 6 5 6 6 5 5 4 4 4 4 4 3 3 4 4 4 4 3 2 1 2 1 1 1 1 1 1 1
5 5 5 5 5 6 7 8 8 9 10 11 10 10 9 10 10 10 8 7 7 6 5 5 5 5 4 4 3 3 3 4 4 3 3 3 3 3 4 3 2 2 2 1 1 1 1 2 2
3 4 5 5 6 7 7 8 8 9 10 10 10 10 9 10 10 10 9 9 8 7 6 5 5 4 4 4 3 3 3 3 4 4 4 4 3 3 4 3 3 2 2 2 1 1 1 1 2
3 4 4 5 7 7 7 7 7 8 9 10 10 9 9 9 10 11 10 9 9 8 7 6 5 4 4 3 3 3 3 3 4 5 5 5 5 4 4 4 4 3 3 3 2 1 2 2 2
2 3 4 5 7 7 7 8 8 9 9 10 9 9 9 9 9 9 9 9 9 8 7 7 5 5 4 4 4 4 4 4 4 5 5 5 5 5 5 5 5 4 4 3 3 3 2 2 2
3 2 4 6 6 8 7 7 7 10 10 9 9 9 9 9 9 9 8 9 9 8 8 7 6 5 5 4 4 4 5 5 5 5 5 5 5 6 6 5 5 5 5 5 4 4 4 3 3
1 3 5 7 8 9 9 9 8 9 9 9 9 8 8 9 9 8 8 8 8 8 7 7 6 5 5 4 5 5 5 5 5 5 5 6 6 6 6 6 6 6 6 5 5 5 4 5 5
0 3 4 5 7 9 9 9 9 9 10 10 9 8 8 8 8 8 8 8 8 7 7 6 6 6 6 5 5 5 6 6 5 6 6 6 6 6 6 6 6 6 6 6 6 6 5 5 6
1 3 5 6 6 8 8 8 9 9 10 10 9 8 8 7 8 8 8 7 7 7 7 7 6 6 6 6 6 6 6 6 6 7 7 7 6 7 7 7 6 6 6 6 6 6 6 6 7
4 6 6 7 6 8 8 9 9 9 10 10 10 9 8 7 8 8 8 7 7 7 7 7 7 7 6 6 6 7 7 8 8 7 7 7 7 7 7 7 6 7 7 7 7 7 7 8 7
6 7 8 8 7 9 10 9 10 10 10 10 10 9 8 8 7 7 7 7 7 8 8 8 8 7 7 7 7 8 8 8 8 8 8 8 7 8 8 7 8 8 8 8 9 9 9 9 9
9 10 9 9 9 9 11 10 11 10 10 11 11 9 9 8 8 7 7 7 8 8 8 8 8 8 8 8 9 9 9 9 10 9 8 8 9 9 10 9 9 9 10 10 10 10 10 10 11
12 11 11 11 10 10 12 13 13 12 10 11 11 10 9 9 8 8 7 8 8 9 9 9 9 10 10 10 10 10 10 10 10 10 10 10 10 10 10 10 10 10 10 10 11 11 12 12 13
13 13 12 12 12 12 13 14 14 13 11 12 12 12 11 10 9 8 8 8 10 10 10 10 11 11 11 11 11 11 11 11 11 11 11 11 11 11 11 11 11 10 11 11 11 12 13 13 14
15 14 14 13 15 16 13 13 14 14 13 13 13 13 12 11 10 10 10 10 11 11 11 11 12 12 12 11 12 12 12 12 12 12 13 13 12 12 12 13 13 12 12 12 12 12 13 14 14
15 15 15 15 15 16 12 14 15 13 14 14 13 14 14 13 13 12 12 13 13 12 12 12 12 12 13 13 13 13 13 13 14 14 14 14 14 13 13 14 13 13 13 13 13 13 13 13 14
16 16 16 16 15 13 13 14 14 14 15 15 14 14 15 14 13 13 14 14 13 13 13 13 13 13 14 14 14 14 14 14 14 15 15 15 14 14 14 14 14 14 14 14 13 13 13 14 14
19 18 17 16 15 15 14 14 15 16 16 16 15 15 15 15 15 14 15 15 15 14 14 14 15 15 15 15 15 15 15 15 16 16 16 15 14 14 15 15 15 15 15 15 15 15 16 16 16
20 18 17 18 18 19 17 17 18 17 16 17 19 16 15 17 17 17 16 16 16 16 15 15 15 15 16 16 16 16 16 16 16 16 16 16 16 15 15 16 16 16 17 17 17 17 18 18 19
20 19 19 19 19 18 19 19 17 17 18 19 19 19 18 18 18 17 18 18 18 18 18 17 17 16 17 17 18 17 17 17 17 18 18 18 18 18 17 18 18 18 18 19 19 19 19 20 20
22 22 22 22 21 19 20 22 18 17 18 20 20 20 21 21 20 20 20 20 19 19 18 18 18 18 18 18 19 19 19 19 19 20 20 20 20 20 19 19 19 20 20 20 20 20 20 21 21
Wind_Direction
79 76 75 68 58 59 56 46 44 42 44 38 32 28 33 34 36 41 54 69 76 81 84 93 95 95 103 119 129 126 133 132 134 137 140 135 132 132 140 138 130 125 122 123 124 122 117 118 116
78 75 66 60 55 53 46 43 43 41 46 45 38 32 32 33 36 44 61 72 77 78 82 88 90 87 97 107 116 123 119 129 141 140 144 138 132 128 131 129 128 127 128 127 124 113 109 113 107
78 72 64 58 50 49 41 38 42 46 44 42 39 36 36 35 41 47 62 73 72 72 78 82 76 74 90 97 102 106 106 108 123 135 136 137 132 125 128 123 123 124 123 120 114 100 104 113 107
76 65 61 56 45 40 40 39 44 44 44 40 37 34 39 43 47 50 62 69 68 69 74 72 73 76 88 92 101 100 102 98 101 115 121 122 122 125 130 124 116 116 110 104 102 105 105 104 110
77 62 52 46 40 35 37 38 39 39 40 43 42 36 40 47 49 53 61 67 64 68 72 75 76 76 85 93 93 98 100 103 100 102 99 109 111 107 106 107 108 101 99 105 105 95 102 106 106
75 63 54 42 35 28 33 37 40 42 37 37 41 38 38 47 49 50 56 63 63 63 66 71 74 78 79 82 83 92 101 100 99 90 83 96 102 107 106 107 102 93 89 95 96 92 105 108 108
75 66 59 42 28 28 30 31 41 38 35 31 36 37 39 46 47 48 52 57 60 66 65 63 64 70 77 80 82 92 100 94 82 69 75 89 97 95 98 103 92 79 62 59 74 97 109 112 106
74 66 61 45 31 26 27 27 34 36 35 31 30 34 38 40 40 41 46 48 54 60 55 55 59 66 72 79 80 83 90 85 78 71 72 74 79 76 86 103 86 83 47 40 66 84 98 106 106
76 71 64 46 30 26 22 19 32 34 34 33 31 33 36 36 35 37 40 43 44 51 53 53 59 64 65 71 74 82 84 79 71 70 66 60 55 52 57 43 45 40 43 49 57 58 35 14 305
70 64 65 51 29 26 20 15 25 30 34 33 33 34 34 34 33 35 38 40 41 46 53 54 55 58 63 68 69 67 69 66 61 60 58 53 45 37 34 8 355 30 34 35 16 360 355 325 309
75 60 54 39 28 29 22 18 21 22 29 27 29 32 33 33 34 33 32 35 37 42 50 56 57 55 53 56 59 54 56 48 44 41 45 39 27 22 19 8 4 3 4 5 349 357 340 309 307
75 60 50 34 22 25 21 18 18 22 20 19 23 28 31 29 31 30 29 31 32 39 44 43 44 49 45 44 45 42 44 38 32 27 21 18 15 9 8 1 351 350 356 2 354 318 324 315 313
62 45 42 36 24 24 15 13 19 19 12 16 17 20 26 27 28 28 26 28 33 35 33 32 31 36 35 35 33 23 20 20 24 20 10 360 356 354 356 356 345 346 347 357 347 308 310 313 308
83 48 42 33 15 12 2 7 9 12 9 13 15 18 20 25 28 28 30 27 31 33 25 21 24 21 17 17 16 13 12 6 1 3 2 354 347 346 343 348 351 344 342 338 334 319 308 305 313
102 37 18 12 6 359 343 2 17 9 4 6 10 16 21 23 26 29 30 30 30 29 24 20 21 19 15 14 10 6 359 0 2 6 4 354 350 352 351 346 348 346 341 336 328 316 306 308 314
84 342 351 1 350 344 346 350 13 2 359 1 4 11 15 19 23 25 26 26 25 23 21 21 22 22 18 14 10 5 1 0 360 359 359 355 350 347 346 347 343 341 342 337 332 323 308 305 304
147 341 335 330 338 335 335 337 347 356 356 353 356 1 6 12 17 18 19 20 19 16 16 18 18 16 13 7 0 356 354 354 352 348 348 347 343 343 342 341 340 339 338 333 326 324 319 307 301
230 283 294 292 311 316 321 324 336 345 351 347 349 353 356 3 9 11 12 12 11 8 6 4 4 5 5 4 358 352 347 344 340 337 338 335 333 333 334 331 332 330 327 322 318 312 311 304 299
248 265 265 275 286 292 301 309 318 335 341 342 342 345 345 349 358 2 3 2 1 358 357 358 354 351 353 354 353 349 343 340 334 329 327 325 321 323 326 327 323 319 311 303 306 306 301 299 297
242 263 265 266 275 283 282 288 308 317 329 332 334 334 338 342 349 353 353 355 356 356 355 354 350 347 344 341 341 338 338 336 333 329 325 324 321 322 319 315 312 309 307 301 300 303 299 296 294
249 253 261 268 269 272 280 279 292 296 310 320 323 321 326 330 338 346 344 345 347 347 348 350 345 339 336 332 332 328 326 326 330 327 323 321 319 318 314 314 312 307 303 300 298 299 300 299 298
245 247 258 264 266 272 270 278 292 296 295 305 312 312 314 320 323 331 334 333 337 339 338 335 333 329 327 325 325 324 320 319 322 320 316 315 315 315 311 307 306 305 301 298 296 296 296 297 298
240 245 250 254 256 261 267 272 282 289 292 295 304 308 307 313 319 320 321 323 326 329 327 325 325 324 322 319 317 317 318 317 315 314 310 308 309 310 309 305 302 301 301 298 295 295 297 296 296
242 245 251 250 252 254 257 269 275 282 287 292 300 302 302 303 309 311 309 316 318 320 320 321 321 320 318 315 313 311 309 310 312 312 308 304 303 303 304 304 300 299 301 302 299 298 299 298 297
242 247 254 261 261 265 264 260 266 274 283 285 289 293 294 294 298 301 300 304 309 312 314 316 316 316 316 314 312 310 307 306 308 310 309 309 306 303 301 300 300 299 301 302 300 301 302 301 299
237 239 247 262 270 274 275 266 267 275 279 280 281 282 282 285 290 295 296 296 300 303 306 308 311 313 314 313 310 307 305 305 306 307 308 307 307 303 302 300 298 296 297 298 299 298 299 300 299
238 240 247 259 261 262 262 268 263 267 272 275 279 278 278 281 284 287 291 293 294 295 298 301 304 307 310 311 308 306 304 305 306 307 308 307 305 303 300 301 299 296 295 296 297 294 295 296 296
241 241 240 245 254 256 258 262 262 264 266 273 277 274 277 281 281 282 288 290 289 292 295 297 298 302 306 311 309 305 303 303 304 304 305 305 304 303 302 303 300 296 295 296 295 292 293 293 294
240 240 237 241 248 259 268 267 271 274 276 279 281 279 279 284 282 282 283 285 286 288 290 292 293 297 301 305 307 305 304 305 304 302 302 300 300 299 298 298 298 295 293 292 291 291 293 293 292
238 240 241 244 248 251 261 267 265 262 272 275 274 276 280 280 278 277 278 280 282 284 284 286 290 294 298 300 302 301 300 301 302 300 299 297 296 296 294 293 294 293 291 289 288 289 290 291 290
Height
5894 5893 5892 5892 5891 5891 5890 5890 5889 5888 5887 5887 5885 5884 5883 5883 5883 5884 5881 5879 5879 5879 5878 5878 5879 5879 5879 5879 5880 5880 5881 5882 5883 5884 5885 5886 5887 5887 5888 5888 5889 5889 5890 5891 5891 5891 5892 5892 5892
5897 5896 5894 5893 5894 5893 5893 5892 5891 5890 5890 5888 5887 5886 5885 5884 5884 5883 5881 5881 5881 5880 5880 5880 5880 5880 5880 5881 5881 5882 5883 5884 5884 5885 5886 5887 5888 5888 5889 5889 5889 5890 5891 5891 5892 5892 5892 5893 5893
5899 5898 5896 5896 5896 5896 5896 5894 5893 5892 5891 5890 5889 5888 5887 5886 5885 5884 5883 5883 5883 5882 5882 5882 5881 5881 5880 5881 5883 5883 5884 5885 5886 5886 5887 5888 5889 5889 5890 5890 5891 5891 5892 5892 5892 5892 5892 5893 5893
5901 5899 5898 5899 5899 5899 5898 5896 5895 5894 5893 5892 5891 5890 5888 5887 5887 5886 5885 5885 5885 5884 5883 5883 5882 5881 5880 5882 5884 5885 5886 5887 5887 5887 5888 5889 5890 5890 5891 5891 5892 5892 5892 5892 5893 5893 5893 5893 5894
5902 5901 5902 5902 5902 5901 5900 5898 5897 5896 5895 5894 5893 5891 5890 5889 5888 5887 5887 5886 5886 5886 5886 5885 5884 5884 5884 5885 5886 5887 5888 5888 5888 5889 5889 5890 5890 5891 5891 5892 5892 5893 5893 5893 5893 5893 5894 5894 5894
5904 5903 5906 5905 5905 5904 5902 5901 5899 5898 5896 5895 5894 5893 5892 5891 5890 5889 5889 5888 5888 5888 5888 5887 5887 5887 5888 5888 5888 5889 5889 5890 5890 5890 5891 5891 5891 5892 5892 5893 5893 5893 5893 5894 5894 5894 5894 5895 5895
5906 5907 5908 5909 5907 5906 5905 5903 5901 5900 5899 5897 5896 5895 5894 5892 5892 5891 5891 5890 5890 5890 5890 5889 5889 5889 5889 5890 5890 5890 5891 5891 5892 5892 5892 5892 5892 5893 5893 5893 5894 5894 5894 5894 5894 5894 5895 5895 5895
5909 5910 5912 5911 5910 5909 5907 5905 5904 5903 5901 5900 5898 5897 5896 5895 5894 5893 5892 5892 5892 5892 5892 5891 5891 5891 5891 5892 5892 5892 5892 5893 5893 5893 5893 5894 5894 5893 5894 5894 5894 5894 5894 5895 5895 5895 5895 5896 5896
5913 5914 5914 5914 5912 5910 5909 5907 5905 5905 5903 5902 5901 5899 5898 5897 5896 5895 5894 5894 5893 5893 5893 5893 5893 5893 5893 5893 5894 5894 5894 5894 5894 5894 5895 5895 5895 5895 5895 5895 5895 5895 5895 5895 5895 5896 5896 5896 5896
5916 5915 5916 5916 5914 5913 5911 5909 5908 5907 5905 5904 5903 5901 5900 5899 5898 5897 5896 5895 5895 5895 5895 5894 5894 5895 5895 5895 5895 5895 5896 5895 5895 5895 5895 5895 5895 5895 5895 5895 5895 5895 5895 5895 5895 5896 5896 5896 5896
5918 5917 5917 5916 5915 5914 5913 5912 5910 5908 5908 5906 5905 5903 5902 5901 5900 5899 5898 5897 5896 5896 5896 5896 5896 5896 5896 5896 5897 5897 5897 5897 5896 5896 5896 5896 5896 5896 5895 5895 5895 5895 5895 5895 5895 5896 5896 5896 5896
5919 5919 5918 5918 5916 5915 5914 5913 5911 5910 5910 5908 5906 5905 5904 5903 5902 5900 5899 5899 5898 5897 5897 5897 5897 5897 5898 5898 5898 5897 5897 5898 5897 5897 5897 5897 5897 5897 5896 5896 5895 5895 5895 5895 5895 5896 5896 5896 5896
5920 5920 5919 5919 5918 5917 5915 5914 5912 5912 5911 5910 5908 5906 5905 5904 5903 5902 5901 5900 5899 5899 5899 5899 5899 5898 5899 5899 5898 5898 5898 5898 5898 5898 5897 5897 5897 5897 5897 5896 5896 5896 5895 5895 5895 5895 5896 5896 5896
5920 5920 5920 5919 5919 5918 5916 5915 5914 5913 5912 5911 5910 5908 5907 5905 5905 5904 5903 5903 5902 5901 5900 5899 5900 5899 5899 5899 5899 5899 5899 5899 5898 5898 5898 5897 5897 5897 5897 5896 5896 5896 5895 5895 5895 5895 5895 5895 5895
5920 5920 5920 5919 5919 5919 5918 5916 5914 5914 5913 5912 5911 5909 5908 5907 5906 5905 5905 5904 5903 5903 5902 5901 5900 5900 5900 5900 5900 5900 5899 5899 5899 5898 5898 5898 5897 5897 5897 5896 5896 5896 5895 5895 5895 5895 5895 5895 5895
5920 5920 5920 5921 5920 5920 5919 5916 5913 5914 5913 5912 5911 5910 5909 5908 5907 5907 5906 5905 5904 5904 5903 5902 5902 5901 5901 5901 5901 5900 5900 5899 5899 5899 5898 5898 5897 5897 5896 5896 5896 5895 5895 5895 5895 5894 5894 5894 5894
5921 5921 5922 5922 5921 5921 5920 5918 5915 5914 5914 5913 5912 5911 5910 5909 5909 5908 5907 5906 5905 5905 5904 5903 5903 5902 5902 5901 5901 5901 5900 5899 5899 5899 5898 5898 5897 5897 5896 5896 5896 5895 5895 5894 5894 5894 5894 5894 5893
5922 5922 5923 5923 5922 5921 5920 5918 5916 5915 5915 5914 5912 5912 5911 5910 5909 5908 5908 5907 5906 5906 5905 5904 5904 5903 5902 5902 5902 5901 5901 5900 5899 5899 5898 5897 5897 5896 5896 5895 5895 5895 5894 5894 5894 5893 5893 5893 5892
5921 5922 5922 5922 5921 5921 5920 5918 5917 5915 5915 5914 5913 5912 5911 5910 5910 5909 5908 5907 5907 5906 5905 5905 5904 5903 5903 5903 5902 5901 5901 5900 5899 5898 5898 5897 5897 5896 5895 5895 5894 5894 5893 5893 5893 5892 5892 5892 5891
5920 5921 5921 5921 5921 5921 5919 5917 5916 5915 5915 5914 5913 5912 5911 5910 5910 5909 5908 5907 5907 5906 5906 5905 5904 5903 5903 5902 5902 5901 5900 5899 5898 5898 5897 5896 5896 5895 5894 5894 5893 5893 5892 5892 5891 5891 5891 5890 5889
5919 5920 5920 5920 5920 5920 5918 5917 5916 5914 5914 5914 5913 5912 5911 5910 5910 5909 5908 5907 5907 5906 5906 5905 5904 5903 5902 5902 5901 5900 5899 5898 5898 5897 5896 5896 5895 5894 5893 5892 5892 5891 5891 5890 5890 5889 5889 5888 5888
5916 5918 5919 5918 5918 5918 5918 5915 5914 5911 5912 5912 5912 5911 5910 5910 5909 5908 5908 5907 5906 5906 5905 5904 5904 5903 5902 5901 5900 5899 5898 5898 5897 5896 5895 5894 5893 5893 5892 5891 5890 5889 5889 5888 5888 5887 5887 5886 5886
5914 5916 5916 5916 5916 5915 5915 5914 5912 5911 5910 5910 5910 5909 5909 5908 5908 5907 5906 5906 5905 5905 5904 5903 5902 5901 5900 5899 5898 5898 5897 5896 5895 5894 5893 5893 5892 5891 5890 5889 5888 5887 5886 5886 5885 5885 5884 5883 5883
5911 5912 5913 5913 5912 5912 5912 5912 5910 5909 5909 5908 5908 5908 5908 5907 5906 5906 5905 5904 5904 5903 5902 5902 5901 5900 5899 5898 5897 5896 5895 5894 5893 5892 5891 5891 5890 5889 5888 5887 5886 5885 5884 5884 5883 5882 5881 5881 5880
5908 5910 5910 5910 5909 5909 5909 5909 5908 5907 5906 5906 5907 5906 5906 5906 5905 5904 5904 5903 5902 5901 5900 5900 5899 5898 5897 5895 5894 5893 5893 5892 5891 5890 5889 5888 5887 5887 5885 5884 5883 5883 5882 5881 5880 5879 5878 5878 5877
5904 5907 5908 5908 5908 5907 5907 5906 5906 5906 5905 5904 5904 5904 5904 5903 5903 5902 5902 5901 5900 5899 5898 5897 5897 5896 5894 5893 5892 5891 5890 5889 5888 5887 5886 5885 5884 5883 5882 5881 5880 5880 5879 5878 5877 5876 5875 5874 5873
5900 5902 5905 5905 5904 5905 5904 5904 5903 5902 5901 5901 5902 5902 5901 5900 5900 5900 5899 5898 5897 5896 5896 5895 5895 5893 5892 5890 5889 5888 5887 5886 5885 5884 5883 5882 5881 5880 5879 5878 5877 5876 5875 5875 5874 5873 5872 5871 5870
5895 5897 5900 5901 5901 5901 5900 5900 5899 5898 5898 5898 5898 5897 5897 5897 5897 5896 5896 5895 5894 5893 5892 5892 5892 5890 5889 5887 5886 5884 5883 5883 5882 5881 5879 5878 5877 5876 5875 5874 5873 5872 5872 5871 5870 5869 5868 5867 5866
5892 5893 5895 5896 5897 5897 5897 5896 5894 5894 5894 5894 5894 5893 5893 5894 5893 5892 5892 5891 5891 5890 5889 5889 5888 5887 5886 5884 5882 5881 5880 5879 5878 5877 5876 5874 5873 5873 5872 5870 5869 5868 5867 5866 5865 5864 5863 5862 5861
5886 5888 5890 5892 5892 5893 5893 5894 5892 5889 5890 5890 5890 5890 5889 5888 5887 5887 5887 5887 5887 5886 5886 5885 5884 5883 5882 5880 5879 5877 5876 5875 5874 5873 5871 5870 5869 5868 5867 5866 5865 5864 5863 5862 5860 5859 5858 5857 5856